CAPE
nan nan nan nan nan nan nan nan nan nan nan nan 0 0 0 nan 0 0 0 nan nan nan nan nan nan nan nan nan nan nan 2 2 3 3 3 1 1 1 1 1 1 2 1 1 1 1 1 1 1 1 0 0 0 0 0 0 0 0 1 2 2 2 2 2 2 1 5 3 3 3 2 0 nan nan nan 0 0 0 1 2 2 4 8 9 9 10
nan nan nan nan nan nan nan nan nan nan nan nan nan nan nan nan nan nan nan nan nan nan nan nan nan nan nan nan nan nan 1 2 3 3 2 2 1 1 0 1 1 1 1 1 1 1 1 0 0 0 0 0 0 0 0 0 0 0 0 0 0 0 0 1 1 1 1 1 0 0 nan nan nan nan nan nan 0 0 2 4 4 7 10 12 12 14
nan nan nan nan nan nan nan nan nan nan nan nan nan nan nan nan nan nan nan nan nan nan 0 0 0 nan nan nan nan nan 0 2 2 2 1 1 1 1 1 1 1 0 1 1 1 1 1 0 0 0 0 0 0 0 0 nan nan nan nan nan nan nan nan nan nan nan nan nan nan nan nan nan nan nan nan nan 0 0 1 3 3 6 10 12 12 16
nan nan nan nan nan nan nan nan nan nan nan nan 0 0 nan nan nan nan nan nan nan nan nan nan nan 0 nan nan nan nan 1 1 2 2 1 0 1 1 1 1 1 1 0 1 1 1 1 0 0 0 0 nan nan nan nan nan nan nan nan nan nan nan nan nan nan nan nan nan nan nan nan nan nan nan nan nan 0 0 0 2 2 3 7 10 10 14
nan nan nan nan nan 0 nan nan nan nan 0 nan nan nan nan nan nan nan nan nan nan nan nan nan nan nan nan nan nan nan nan 1 0 0 0 0 0 0 1 1 1 1 0 0 0 0 0 0 0 0 nan 0 0 0 nan nan nan nan nan nan nan nan nan nan nan nan nan nan nan nan nan nan nan nan nan nan nan nan 0 0 0 1 2 6 6 11
nan nan nan nan nan 0 0 nan nan nan nan nan nan nan nan nan 0 0 nan nan nan nan nan nan nan nan nan nan nan nan nan nan nan nan nan nan 0 0 0 1 1 1 1 1 1 1 1 0 0 nan nan nan nan nan nan nan nan nan nan nan nan nan nan nan nan nan nan nan nan nan nan nan nan nan nan nan nan nan nan 0 0 0 1 2 2 6
nan nan 0 nan nan 0 0 nan 0 0 nan nan nan nan nan nan nan nan nan nan nan nan nan nan nan nan nan nan nan nan nan nan nan nan nan nan nan nan 0 0 0 1 1 1 1 0 0 0 0 nan nan nan nan nan nan nan nan nan nan nan nan nan nan nan nan nan nan nan nan nan nan nan nan nan nan nan nan nan nan nan nan 0 0 1 1 3
nan nan nan nan nan nan nan nan nan nan nan nan nan nan nan nan nan nan nan nan nan nan nan nan nan nan nan nan nan nan nan nan nan nan nan nan nan nan nan nan nan nan nan nan nan nan nan nan nan nan nan nan nan nan nan nan nan nan nan nan nan nan nan nan nan nan nan nan nan nan nan nan nan nan nan nan nan nan nan nan nan nan nan nan nan 0
nan nan nan nan nan nan nan nan nan nan nan nan nan nan nan nan nan nan nan nan nan nan nan nan nan nan nan nan nan nan nan nan nan nan nan nan nan nan nan nan nan nan nan nan nan nan nan nan nan nan nan nan nan nan nan nan nan nan nan nan nan nan nan nan nan nan nan nan nan nan nan nan nan nan nan nan nan nan nan nan nan nan nan nan nan 0
nan nan nan nan nan nan nan nan nan nan nan nan nan nan nan nan nan nan nan nan nan nan nan nan nan nan nan nan nan nan nan nan nan nan nan nan nan nan nan nan nan nan nan nan nan nan nan nan nan nan nan nan nan nan nan nan nan nan nan nan nan nan nan nan nan nan nan nan nan nan nan nan 0 0 0 0 0 0 nan nan nan nan nan nan nan nan
nan nan nan nan nan nan nan nan nan nan nan nan nan nan nan nan nan nan nan nan nan nan nan nan nan nan nan nan nan nan nan nan nan nan nan nan nan nan nan nan nan nan nan nan nan nan nan nan nan nan nan nan nan nan nan nan nan nan nan nan nan nan nan nan nan nan nan nan nan nan 0 0 1 1 1 1 1 1 1 0 0 nan nan nan nan nan
nan nan nan nan nan nan nan nan nan nan nan nan nan nan nan nan nan nan nan nan nan nan nan nan nan nan nan nan nan nan nan nan nan nan nan nan nan nan nan nan nan nan nan nan nan nan nan nan nan nan nan nan nan nan nan nan nan nan nan nan nan nan nan nan nan nan 0 1 1 1 1 1 1 1 1 1 2 2 2 1 1 0 0 0 0 0
nan nan nan nan nan nan nan nan nan nan nan nan nan nan nan nan nan nan nan nan nan nan nan nan nan nan nan nan nan nan nan nan nan nan nan nan nan nan nan nan nan nan nan nan nan nan nan nan nan nan nan nan nan nan nan nan nan nan nan nan nan nan nan nan nan 0 1 2 2 2 2 2 2 2 1 2 2 2 2 2 2 1 1 1 1 1
nan nan nan nan nan nan nan nan nan nan nan nan nan nan nan nan nan nan nan nan nan nan nan nan nan nan nan nan nan nan nan nan nan nan nan nan nan nan nan nan nan nan nan nan nan nan nan nan nan nan nan nan nan nan nan nan nan nan nan nan nan nan nan 0 0 1 2 2 2 2 2 3 2 2 2 2 2 2 2 2 2 1 1 2 2 2
nan nan nan nan nan nan nan nan nan nan nan nan nan nan nan nan nan nan nan nan nan nan nan nan nan nan nan nan nan nan nan nan nan nan nan nan nan nan nan nan nan nan nan nan nan nan nan nan nan nan nan nan nan nan nan nan nan nan nan nan nan nan 0 1 1 2 3 3 3 3 3 3 3 3 3 3 4 4 3 3 3 2 2 2 2 3
nan nan nan nan nan nan nan nan nan nan nan nan nan nan nan nan nan nan nan nan nan nan nan nan nan nan nan nan nan nan nan nan nan nan nan nan nan nan nan nan nan nan nan nan nan nan nan nan nan nan nan nan nan nan nan nan nan nan nan nan nan nan 1 2 2 3 3 2 3 3 3 3 3 3 4 4 5 5 5 4 4 3 3 3 3 3
nan nan nan nan nan nan nan nan nan nan nan nan nan nan nan nan nan nan nan nan nan nan nan nan nan nan nan nan nan nan nan nan nan nan nan nan nan nan nan nan nan nan nan nan nan nan nan nan nan nan nan nan nan nan nan nan nan nan nan nan nan 0 1 2 2 2 3 3 3 3 3 4 4 4 5 5 4 4 5 5 5 4 3 4 4 3
nan nan nan nan nan nan nan nan nan nan nan nan nan nan nan nan nan nan nan nan nan nan nan nan nan nan nan nan nan nan nan nan nan nan nan nan nan nan nan nan nan nan nan nan nan nan nan nan nan nan nan nan nan nan nan nan nan nan nan nan nan 0 1 1 1 1 1 2 3 3 3 4 6 6 6 7 6 6 5 6 6 5 6 4 4 4
nan nan nan nan nan nan nan nan nan nan nan nan nan nan nan nan nan nan nan nan nan nan nan nan nan nan nan nan nan nan nan nan nan nan nan nan nan nan nan nan nan nan nan nan nan nan nan nan nan nan nan nan nan nan nan nan nan nan nan nan nan 0 1 1 1 1 0 1 3 3 4 6 8 8 10 10 10 10 10 8 8 8 11 12 12 9
nan nan nan nan nan nan nan nan nan nan nan nan nan nan nan nan nan nan nan nan nan nan nan nan nan nan nan nan nan nan nan nan nan nan nan nan nan nan nan nan nan nan nan nan nan nan nan nan nan nan nan nan nan nan nan nan nan nan nan 0 0 0 0 0 0 nan nan 1 3 3 4 5 6 6 7 8 11 11 11 15 15 13 18 14 14 15
nan nan nan nan nan nan nan nan nan nan nan nan nan nan nan nan nan nan nan nan nan nan nan nan nan nan nan nan nan nan nan nan nan nan nan nan nan nan nan nan nan nan nan nan nan nan nan nan nan nan nan nan nan nan nan nan nan nan nan 0 0 0 nan nan nan nan 0 1 3 3 3 3 4 4 4 6 6 6 8 11 11 13 15 16 16 19
nan nan nan nan nan nan nan nan nan nan nan nan nan nan nan nan nan nan nan nan nan nan nan nan nan nan nan nan nan nan nan nan nan nan nan nan nan nan nan nan nan nan nan nan nan nan nan nan nan nan nan nan nan nan nan nan nan nan nan 0 0 nan nan nan nan 1 2 2 3 3 3 4 4 4 4 4 4 4 5 6 6 6 8 11 11 13
nan nan nan nan nan nan nan nan nan nan nan nan nan nan nan nan nan nan nan nan nan nan nan nan nan nan nan nan nan nan nan nan nan nan nan nan nan nan nan nan nan nan nan nan nan nan nan nan nan nan nan nan nan nan nan nan nan nan 0 nan nan nan nan 1 1 2 2 3 3 3 4 4 6 6 5 5 5 5 5 5 5 5 6 7 7 8
nan nan nan nan nan nan nan nan nan nan nan nan nan nan nan nan nan nan nan nan nan nan nan nan nan nan nan nan nan nan nan nan nan nan nan nan nan nan nan nan nan nan nan nan nan nan nan nan nan nan nan nan nan nan nan nan nan 0 0 nan nan nan 0 0 0 1 2 2 3 3 4 5 6 6 7 7 6 6 6 5 5 6 6 7 7 8
nan nan nan nan nan nan nan nan nan nan nan nan nan nan nan nan nan nan nan nan nan nan nan nan nan nan nan nan nan nan nan nan nan nan nan nan nan nan nan nan nan nan nan nan nan nan nan nan nan nan nan nan nan nan nan nan nan 0 0 nan nan nan nan 0 0 0 1 1 2 2 3 4 5 5 6 6 7 7 6 5 5 6 5 7 7 8
nan nan nan nan nan nan nan nan nan nan nan nan nan nan nan nan nan nan nan nan nan nan nan nan nan nan nan nan nan nan nan nan nan nan nan nan nan nan nan nan nan nan nan nan nan nan nan nan nan nan nan nan nan nan nan 1 1 0 nan nan nan nan nan nan nan nan nan 0 1 1 2 2 3 3 3 4 5 5 6 6 6 6 6 5 5 7
nan nan nan nan nan nan nan nan nan nan nan nan nan nan nan nan nan nan nan nan nan nan nan nan nan nan nan nan nan nan nan nan nan nan nan nan nan nan nan nan nan nan nan nan nan nan nan nan nan nan nan nan nan nan nan 0 0 nan nan nan nan nan nan nan nan nan nan 0 1 1 1 2 2 2 3 4 4 4 4 6 6 7 7 6 6 6
nan nan nan nan nan nan nan nan nan nan nan nan nan nan nan nan nan nan nan nan nan nan nan nan nan nan nan nan nan nan nan nan nan nan nan nan nan nan nan nan nan nan nan nan nan nan 0 nan nan nan nan nan nan nan nan nan nan nan nan nan nan nan nan nan nan nan nan 0 1 1 1 1 2 2 3 3 3 3 4 4 4 6 8 5 5 2
0 1 0 nan nan 0 1 0 nan nan nan nan nan nan nan nan nan nan nan nan nan nan nan nan nan nan nan nan nan nan nan nan nan nan nan nan nan nan nan nan nan nan nan nan nan nan nan nan nan nan nan nan nan nan nan nan nan nan nan nan nan nan nan nan nan nan nan 0 1 1 2 2 2 2 3 3 3 3 4 5 5 6 6 2 2 nan
nan nan nan nan nan nan nan 0 1 1 6 2 nan nan nan nan nan nan nan nan nan nan nan nan nan nan nan nan nan nan nan nan nan nan nan nan nan nan nan nan nan nan nan nan nan nan nan nan nan nan nan nan nan nan nan nan nan nan nan nan nan nan nan nan nan nan nan nan 0 0 1 2 2 2 2 3 3 3 3 4 4 4 2 nan nan nan
nan nan nan nan nan nan nan nan 0 0 nan 12 10 10 nan nan nan nan nan nan nan nan nan nan nan nan nan nan nan nan nan nan nan nan nan nan nan nan nan nan nan nan nan nan nan nan nan nan nan nan nan nan nan nan nan nan nan nan nan nan nan nan nan nan nan nan nan nan nan nan 0 0 0 0 1 1 2 2 3 4 4 3 nan nan nan nan
nan nan nan nan nan nan nan nan nan nan nan nan nan nan nan nan nan nan nan nan nan nan nan nan nan nan nan nan nan nan nan nan nan nan nan nan nan nan nan nan nan nan nan nan nan nan nan nan nan nan nan nan nan nan nan nan nan nan nan nan nan nan nan nan nan nan nan nan nan nan nan nan nan nan nan nan 0 0 1 3 3 3 nan nan nan nan
nan nan nan nan nan nan nan nan nan nan nan nan nan nan nan nan nan nan nan nan nan nan nan nan nan nan nan nan nan nan nan nan nan nan nan nan nan nan nan nan nan nan nan nan nan nan nan nan nan nan nan nan nan nan nan nan nan nan nan nan nan nan nan nan nan nan nan nan nan nan nan nan nan nan nan nan 0 0 1 3 3 5 1 nan nan nan
nan nan nan nan nan nan nan nan nan nan nan nan nan nan nan nan nan nan nan nan nan nan nan nan nan nan nan nan nan nan nan nan nan nan 0 nan nan nan nan nan nan nan nan nan nan nan nan nan nan nan nan nan nan nan nan nan nan nan nan nan nan nan nan nan nan nan nan nan nan nan nan nan nan nan nan nan nan nan 2 2 2 6 6 nan nan nan
nan nan nan nan nan nan nan nan nan nan nan nan nan nan nan nan nan nan nan nan nan nan nan nan nan nan nan nan nan nan nan nan nan nan 0 nan nan nan nan nan nan nan nan nan nan nan nan nan nan nan nan nan nan nan nan nan nan nan nan nan nan nan nan nan nan nan nan nan nan nan nan nan nan nan nan nan nan nan 1 1 1 2 3 7 7 1
nan nan nan nan nan nan nan nan nan nan nan nan nan nan nan nan nan nan nan nan nan nan nan nan nan nan nan nan nan nan nan nan nan nan nan nan nan nan nan nan nan nan nan nan nan nan nan nan nan nan nan nan nan nan nan nan nan nan nan nan nan nan nan nan nan nan nan nan nan nan nan nan nan nan nan nan nan nan nan nan nan nan 0 1 1 0
nan nan nan nan nan nan nan nan nan nan nan nan nan nan nan nan nan nan nan nan nan nan nan nan nan nan nan nan nan nan nan nan nan nan nan nan nan nan nan nan nan nan nan nan nan nan nan nan nan nan nan nan nan nan nan nan nan nan nan nan nan nan nan nan nan nan nan nan nan nan nan nan nan nan nan nan nan nan nan nan nan nan nan nan nan nan
nan nan nan nan nan nan nan nan nan nan nan nan nan nan nan nan nan nan nan nan nan nan nan nan nan nan nan nan nan nan nan nan nan nan nan nan nan nan nan nan nan nan nan nan nan nan nan nan nan nan nan nan nan nan nan nan nan nan nan nan nan nan nan nan nan nan nan nan nan nan nan nan nan nan nan nan nan nan nan nan nan nan nan nan nan nan
nan nan nan nan nan nan nan nan nan nan nan nan nan nan nan nan nan nan nan nan nan nan nan nan nan nan nan nan nan nan nan nan nan nan nan nan nan nan nan nan nan nan nan nan nan nan nan nan nan nan nan nan nan nan nan nan nan nan nan nan nan nan nan nan nan nan nan nan nan nan nan nan nan nan nan nan nan nan nan nan nan nan nan nan nan nan
nan nan nan nan nan nan nan nan nan nan nan nan nan nan nan nan nan nan nan nan nan nan nan nan nan nan nan nan nan nan nan nan nan nan nan nan nan nan nan nan nan nan nan nan nan nan nan nan nan nan nan nan nan nan nan nan nan nan nan nan nan nan nan nan nan nan nan nan nan nan nan nan nan nan nan nan nan nan nan nan nan nan nan nan nan nan
nan nan nan nan nan nan nan nan nan nan nan nan nan nan nan nan nan nan nan nan nan nan nan nan nan nan nan nan nan nan nan nan nan nan nan nan nan nan nan nan nan nan nan nan nan nan nan nan nan nan nan nan nan nan nan nan nan nan 1 nan nan nan nan nan nan nan nan nan nan nan nan nan nan nan nan nan nan nan nan nan nan nan nan nan nan nan
nan nan nan nan nan nan nan nan nan nan nan nan nan nan nan nan nan nan nan nan nan nan nan nan nan nan nan nan nan nan nan nan nan nan nan nan nan nan nan nan nan nan nan nan nan nan nan nan nan nan nan nan nan nan nan nan nan nan nan nan nan nan nan nan nan nan nan nan nan nan nan nan nan nan nan nan nan nan nan nan nan nan nan nan nan nan
nan nan nan nan nan nan nan nan nan nan nan nan nan nan nan nan nan nan nan nan nan nan nan nan nan nan nan nan nan nan nan nan nan nan nan nan nan nan nan nan nan nan nan nan nan nan nan nan nan nan nan nan nan nan nan nan nan nan nan nan nan nan nan nan nan nan nan nan nan nan nan nan nan nan nan nan nan nan nan nan nan nan nan nan nan nan
nan nan nan nan nan nan nan nan nan nan nan nan nan nan nan nan nan nan nan nan nan nan nan nan nan nan nan nan nan nan nan nan nan nan nan nan nan nan nan nan nan nan nan nan nan nan nan nan nan nan nan nan nan nan nan nan nan nan nan nan nan nan nan nan nan nan nan nan nan nan nan nan nan nan nan nan nan nan nan nan nan nan nan nan nan nan
nan nan nan nan nan nan nan nan nan nan nan nan nan nan nan nan nan nan nan nan nan nan nan nan nan nan nan nan nan nan nan nan nan nan nan nan 1 1 nan nan nan nan nan nan nan nan nan nan nan nan nan nan nan nan nan nan nan nan nan nan nan nan nan nan nan nan nan nan nan nan nan nan nan nan nan nan nan nan nan nan nan nan nan nan nan nan
nan nan nan nan nan nan nan nan nan nan nan nan nan nan nan nan nan nan nan nan nan nan nan nan nan nan nan nan nan nan nan nan nan nan nan nan nan nan nan nan nan nan nan nan nan nan nan nan nan nan nan nan nan nan nan nan nan nan nan nan nan nan nan nan nan nan nan nan nan nan nan nan nan nan nan nan nan nan nan nan nan nan nan nan nan nan
nan nan nan nan nan nan nan nan nan nan nan nan nan nan nan nan nan nan nan nan nan nan nan nan nan nan nan nan nan nan nan nan nan nan nan nan nan nan nan nan nan nan nan nan nan nan nan nan nan nan nan nan nan nan nan nan nan nan nan nan nan nan nan nan nan nan nan nan nan nan nan nan nan nan nan nan nan nan nan nan nan nan nan nan nan nan
nan nan nan nan nan nan nan nan nan nan nan nan nan nan nan nan nan nan nan nan nan nan nan nan nan nan nan nan nan nan nan nan nan nan nan nan nan nan nan nan nan nan nan nan nan nan nan nan nan nan nan nan nan nan nan nan nan nan nan nan nan nan nan nan nan nan nan nan nan nan nan nan nan nan nan nan nan nan nan nan nan nan nan nan nan nan
nan nan nan nan nan nan nan nan nan nan nan nan nan nan nan nan nan nan nan nan nan nan nan nan nan nan nan nan nan nan nan nan nan nan nan nan nan nan nan nan nan nan nan nan nan nan nan nan nan nan nan nan nan nan nan nan nan nan nan nan nan nan nan nan nan nan nan nan nan nan nan nan nan nan nan nan nan nan nan nan nan nan nan nan nan nan
nan nan nan nan nan nan nan nan nan nan nan nan nan nan nan nan nan nan nan nan nan nan nan nan nan nan nan nan nan nan nan nan nan nan nan nan nan nan nan nan nan nan nan nan nan nan nan 1 1 6 9 2 nan nan nan nan nan nan nan nan nan nan nan nan nan nan nan nan nan nan nan nan nan nan nan nan nan nan nan nan nan nan nan nan nan nan
nan nan nan nan nan nan nan nan nan nan nan nan nan nan nan nan nan nan nan nan nan nan nan nan nan nan nan nan nan nan nan nan nan nan nan nan nan nan nan nan nan nan nan nan nan nan nan nan nan nan nan 19 3 3 nan nan nan nan nan nan nan nan nan nan nan nan nan nan nan nan nan nan nan nan nan nan nan nan nan nan nan nan nan nan nan nan
CIN
nan nan nan nan nan nan nan nan nan nan nan nan -0 -0 -0 nan -0 -0 -0 nan nan nan nan nan nan nan nan nan nan nan -0 -0 -0 -0 -0 -0 -0 -0 -0 -0 -0 -0 -0 -0 -0 -0 -0 -0 -0 -0 -0 -0 -0 -0 -0 -0 -0 -0 -0 -0 -0 -0 -0 -0 -0 -0 -0 -0 -0 -0 -0 -0 nan nan nan -0 -0 -0 -0 -0 -0 -0 -0 -0 -0 -0
nan nan nan nan nan nan nan nan nan nan nan nan nan nan nan nan nan nan nan nan nan nan nan nan nan nan nan nan nan nan -0 -0 -0 -0 -0 -0 -0 -0 -0 -0 -0 -0 -0 -0 -0 -0 -0 -0 -0 -0 -0 -0 -0 -0 -0 -0 -0 -0 -0 -0 -0 -0 -0 -0 -0 -0 -0 -0 -0 -0 nan nan nan nan nan nan -0 -0 -0 -0 -0 -0 -0 -0 -0 -0
nan nan nan nan nan nan nan nan nan nan nan nan nan nan nan nan nan nan nan nan nan nan -0 -0 -0 nan nan nan nan nan -0 -0 -0 -0 -0 -0 -0 -0 -0 -0 -0 -0 -0 -0 -0 -0 -0 -0 -0 -0 -0 -0 -0 -0 -0 nan nan nan nan nan nan nan nan nan nan nan nan nan nan nan nan nan nan nan nan nan -0 -0 -0 -0 -0 -0 -0 -0 -0 -0
nan nan nan nan nan nan nan nan nan nan nan nan -0 -0 nan nan nan nan nan nan nan nan nan nan nan -0 nan nan nan nan -0 -0 -0 -0 -0 -0 -0 -0 -0 -0 -0 -0 -0 -0 -0 -0 -0 -0 -0 -0 -0 nan nan nan nan nan nan nan nan nan nan nan nan nan nan nan nan nan nan nan nan nan nan nan nan nan -0 -0 -0 -0 -0 -0 -0 -0 -0 -0
nan nan nan nan nan -0 nan nan nan nan -0 nan nan nan nan nan nan nan nan nan nan nan nan nan nan nan nan nan nan nan nan -0 -0 -0 -0 -0 -0 -0 -0 -0 -0 -0 -0 -0 -0 -0 -0 -0 -0 -0 nan -0 -0 -0 nan nan nan nan nan nan nan nan nan nan nan nan nan nan nan nan nan nan nan nan nan nan nan nan -0 -0 -0 -0 -0 -0 -0 -0
nan nan nan nan nan -0 -0 nan nan nan nan nan nan nan nan nan -0 -0 nan nan nan nan nan nan nan nan nan nan nan nan nan nan nan nan nan nan -0 -0 -0 -0 -0 -0 -0 -0 -0 -0 -0 -0 -0 nan nan nan nan nan nan nan nan nan nan nan nan nan nan nan nan nan nan nan nan nan nan nan nan nan nan nan nan nan nan -0 -0 -0 -0 -0 -0 -0
nan nan -0 nan nan -0 -0 nan -0 -0 nan nan nan nan nan nan nan nan nan nan nan nan nan nan nan nan nan nan nan nan nan nan nan nan nan nan nan nan -0 -0 -0 -0 -0 -0 -0 -0 -0 -0 -0 nan nan nan nan nan nan nan nan nan nan nan nan nan nan nan nan nan nan nan nan nan nan nan nan nan nan nan nan nan nan nan nan -0 -0 -0 -0 -0
nan nan nan nan nan nan nan nan nan nan nan nan nan nan nan nan nan nan nan nan nan nan nan nan nan nan nan nan nan nan nan nan nan nan nan nan nan nan nan nan nan nan nan nan nan nan nan nan nan nan nan nan nan nan nan nan nan nan nan nan nan nan nan nan nan nan nan nan nan nan nan nan nan nan nan nan nan nan nan nan nan nan nan nan nan -0
nan nan nan nan nan nan nan nan nan nan nan nan nan nan nan nan nan nan nan nan nan nan nan nan nan nan nan nan nan nan nan nan nan nan nan nan nan nan nan nan nan nan nan nan nan nan nan nan nan nan nan nan nan nan nan nan nan nan nan nan nan nan nan nan nan nan nan nan nan nan nan nan nan nan nan nan nan nan nan nan nan nan nan nan nan -0
nan nan nan nan nan nan nan nan nan nan nan nan nan nan nan nan nan nan nan nan nan nan nan nan nan nan nan nan nan nan nan nan nan nan nan nan nan nan nan nan nan nan nan nan nan nan nan nan nan nan nan nan nan nan nan nan nan nan nan nan nan nan nan nan nan nan nan nan nan nan nan nan -0 -0 -0 -0 -0 -0 nan nan nan nan nan nan nan nan
nan nan nan nan nan nan nan nan nan nan nan nan nan nan nan nan nan nan nan nan nan nan nan nan nan nan nan nan nan nan nan nan nan nan nan nan nan nan nan nan nan nan nan nan nan nan nan nan nan nan nan nan nan nan nan nan nan nan nan nan nan nan nan nan nan nan nan nan nan nan -0 -0 -0 -0 -0 -0 -0 -0 -0 -0 -0 nan nan nan nan nan
nan nan nan nan nan nan nan nan nan nan nan nan nan nan nan nan nan nan nan nan nan nan nan nan nan nan nan nan nan nan nan nan nan nan nan nan nan nan nan nan nan nan nan nan nan nan nan nan nan nan nan nan nan nan nan nan nan nan nan nan nan nan nan nan nan nan -0 -0 -0 -0 -0 -0 -0 -0 -0 -0 -0 -0 -0 -0 -0 -0 -0 -0 -0 -0
nan nan nan nan nan nan nan nan nan nan nan nan nan nan nan nan nan nan nan nan nan nan nan nan nan nan nan nan nan nan nan nan nan nan nan nan nan nan nan nan nan nan nan nan nan nan nan nan nan nan nan nan nan nan nan nan nan nan nan nan nan nan nan nan nan -0 -0 -0 -0 -0 -0 -0 -0 -0 -0 -0 -0 -0 -0 -0 -0 -0 -0 -0 -0 -0
nan nan nan nan nan nan nan nan nan nan nan nan nan nan nan nan nan nan nan nan nan nan nan nan nan nan nan nan nan nan nan nan nan nan nan nan nan nan nan nan nan nan nan nan nan nan nan nan nan nan nan nan nan nan nan nan nan nan nan nan nan nan nan -0 -0 -0 -0 -0 -0 -0 -0 -0 -0 -0 -0 -0 -0 -0 -0 -0 -0 -0 -0 -0 -0 -0
nan nan nan nan nan nan nan nan nan nan nan nan nan nan nan nan nan nan nan nan nan nan nan nan nan nan nan nan nan nan nan nan nan nan nan nan nan nan nan nan nan nan nan nan nan nan nan nan nan nan nan nan nan nan nan nan nan nan nan nan nan nan -0 -0 -0 -0 -0 -0 -0 -0 -0 -0 -0 -0 -0 -0 -0 -0 -0 -0 -0 -0 -0 -0 -0 -0
nan nan nan nan nan nan nan nan nan nan nan nan nan nan nan nan nan nan nan nan nan nan nan nan nan nan nan nan nan nan nan nan nan nan nan nan nan nan nan nan nan nan nan nan nan nan nan nan nan nan nan nan nan nan nan nan nan nan nan nan nan nan -0 -0 -0 -0 -0 -0 -0 -0 -0 -0 -0 -0 -0 -0 -0 -0 -0 -0 -0 -0 -0 -0 -0 -0
nan nan nan nan nan nan nan nan nan nan nan nan nan nan nan nan nan nan nan nan nan nan nan nan nan nan nan nan nan nan nan nan nan nan nan nan nan nan nan nan nan nan nan nan nan nan nan nan nan nan nan nan nan nan nan nan nan nan nan nan nan -0 -0 -0 -0 -0 -0 -0 -0 -0 -0 -0 -0 -0 -0 -0 -0 -0 -0 -0 -0 -0 -0 -0 -0 -0
nan nan nan nan nan nan nan nan nan nan nan nan nan nan nan nan nan nan nan nan nan nan nan nan nan nan nan nan nan nan nan nan nan nan nan nan nan nan nan nan nan nan nan nan nan nan nan nan nan nan nan nan nan nan nan nan nan nan nan nan nan -0 -0 -0 -0 -0 -0 -0 -0 -0 -0 -0 -0 -0 -0 -0 -0 -0 -0 -0 -0 -0 -0 -0 -0 -0
nan nan nan nan nan nan nan nan nan nan nan nan nan nan nan nan nan nan nan nan nan nan nan nan nan nan nan nan nan nan nan nan nan nan nan nan nan nan nan nan nan nan nan nan nan nan nan nan nan nan nan nan nan nan nan nan nan nan nan nan nan -0 -0 -0 -0 -0 -0 -0 -0 -0 -0 -0 -0 -0 -0 -0 -0 -0 -0 -0 -0 -0 -0 -0 -0 -0
nan nan nan nan nan nan nan nan nan nan nan nan nan nan nan nan nan nan nan nan nan nan nan nan nan nan nan nan nan nan nan nan nan nan nan nan nan nan nan nan nan nan nan nan nan nan nan nan nan nan nan nan nan nan nan nan nan nan nan -0 -0 -0 -0 -0 -0 nan nan -0 -0 -0 -0 -0 -0 -0 -0 -0 -0 -0 -0 -0 -0 -0 -0 -0 -0 -0
nan nan nan nan nan nan nan nan nan nan nan nan nan nan nan nan nan nan nan nan nan nan nan nan nan nan nan nan nan nan nan nan nan nan nan nan nan nan nan nan nan nan nan nan nan nan nan nan nan nan nan nan nan nan nan nan nan nan nan -0 -0 -0 nan nan nan nan -0 -0 -0 -0 -0 -0 -0 -0 -0 -0 -0 -0 -0 -0 -0 -0 -0 -0 -0 -0
nan nan nan nan nan nan nan nan nan nan nan nan nan nan nan nan nan nan nan nan nan nan nan nan nan nan nan nan nan nan nan nan nan nan nan nan nan nan nan nan nan nan nan nan nan nan nan nan nan nan nan nan nan nan nan nan nan nan nan -0 -0 nan nan nan nan -0 -0 -0 -0 -0 -0 -0 -0 -0 -0 -0 -0 -0 -0 -0 -0 -0 -0 -0 -0 -0
nan nan nan nan nan nan nan nan nan nan nan nan nan nan nan nan nan nan nan nan nan nan nan nan nan nan nan nan nan nan nan nan nan nan nan nan nan nan nan nan nan nan nan nan nan nan nan nan nan nan nan nan nan nan nan nan nan nan -0 nan nan nan nan -0 -0 -0 -0 -0 -0 -0 -0 -0 -0 -0 -0 -0 -0 -0 -0 -0 -0 -0 -0 -0 -0 -0
nan nan nan nan nan nan nan nan nan nan nan nan nan nan nan nan nan nan nan nan nan nan nan nan nan nan nan nan nan nan nan nan nan nan nan nan nan nan nan nan nan nan nan nan nan nan nan nan nan nan nan nan nan nan nan nan nan -0 -0 nan nan nan -0 -0 -0 -0 -0 -0 -0 -0 -0 -0 -0 -0 -0 -0 -0 -0 -0 -0 -0 -0 -0 -0 -0 -0
nan nan nan nan nan nan nan nan nan nan nan nan nan nan nan nan nan nan nan nan nan nan nan nan nan nan nan nan nan nan nan nan nan nan nan nan nan nan nan nan nan nan nan nan nan nan nan nan nan nan nan nan nan nan nan nan nan -0 -0 nan nan nan nan -0 -0 -0 -0 -0 -0 -0 -0 -0 -0 -0 -0 -0 -0 -0 -0 -0 -0 -0 -0 -0 -0 -0
nan nan nan nan nan nan nan nan nan nan nan nan nan nan nan nan nan nan nan nan nan nan nan nan nan nan nan nan nan nan nan nan nan nan nan nan nan nan nan nan nan nan nan nan nan nan nan nan nan nan nan nan nan nan nan -0 -0 -0 nan nan nan nan nan nan nan nan nan -0 -0 -0 -0 -0 -0 -0 -0 -0 -0 -0 -0 -0 -0 -0 -0 -0 -0 -0
nan nan nan nan nan nan nan nan nan nan nan nan nan nan nan nan nan nan nan nan nan nan nan nan nan nan nan nan nan nan nan nan nan nan nan nan nan nan nan nan nan nan nan nan nan nan nan nan nan nan nan nan nan nan nan -0 -0 nan nan nan nan nan nan nan nan nan nan -0 -0 -0 -0 -0 -0 -0 -0 -0 -0 -0 -0 -0 -0 -0 -0 -0 -0 -0
nan nan nan nan nan nan nan nan nan nan nan nan nan nan nan nan nan nan nan nan nan nan nan nan nan nan nan nan nan nan nan nan nan nan nan nan nan nan nan nan nan nan nan nan nan nan -0 nan nan nan nan nan nan nan nan nan nan nan nan nan nan nan nan nan nan nan nan -0 -0 -0 -0 -0 -0 -0 -0 -0 -0 -0 -0 -0 -0 -0 -0 -0 -0 -15
-0 -0 -0 nan nan -0 -0 -0 nan nan nan nan nan nan nan nan nan nan nan nan nan nan nan nan nan nan nan nan nan nan nan nan nan nan nan nan nan nan nan nan nan nan nan nan nan nan nan nan nan nan nan nan nan nan nan nan nan nan nan nan nan nan nan nan nan nan nan -0 -0 -0 -0 -0 -0 -0 -0 -0 -0 -0 -0 -0 -0 -0 -0 -13 -13 nan
nan nan nan nan nan nan nan -0 -7 -7 -0 -0 nan nan nan nan nan nan nan nan nan nan nan nan nan nan nan nan nan nan nan nan nan nan nan nan nan nan nan nan nan nan nan nan nan nan nan nan nan nan nan nan nan nan nan nan nan nan nan nan nan nan nan nan nan nan nan nan -0 -0 -0 -0 -0 -0 -0 -0 -0 -0 -0 -0 -0 -0 -10 nan nan nan
nan nan nan nan nan nan nan nan -0 -0 nan -0 -0 -0 nan nan nan nan nan nan nan nan nan nan nan nan nan nan nan nan nan nan nan nan nan nan nan nan nan nan nan nan nan nan nan nan nan nan nan nan nan nan nan nan nan nan nan nan nan nan nan nan nan nan nan nan nan nan nan nan -0 -0 -0 -0 -0 -0 -0 -0 -0 -0 -0 -0 nan nan nan nan
nan nan nan nan nan nan nan nan nan nan nan nan nan nan nan nan nan nan nan nan nan nan nan nan nan nan nan nan nan nan nan nan nan nan nan nan nan nan nan nan nan nan nan nan nan nan nan nan nan nan nan nan nan nan nan nan nan nan nan nan nan nan nan nan nan nan nan nan nan nan nan nan nan nan nan nan -0 -0 -0 -0 -0 -0 nan nan nan nan
nan nan nan nan nan nan nan nan nan nan nan nan nan nan nan nan nan nan nan nan nan nan nan nan nan nan nan nan nan nan nan nan nan nan nan nan nan nan nan nan nan nan nan nan nan nan nan nan nan nan nan nan nan nan nan nan nan nan nan nan nan nan nan nan nan nan nan nan nan nan nan nan nan nan nan nan -0 -0 -0 -0 -0 -0 -12 nan nan nan
nan nan nan nan nan nan nan nan nan nan nan nan nan nan nan nan nan nan nan nan nan nan nan nan nan nan nan nan nan nan nan nan nan nan -0 nan nan nan nan nan nan nan nan nan nan nan nan nan nan nan nan nan nan nan nan nan nan nan nan nan nan nan nan nan nan nan nan nan nan nan nan nan nan nan nan nan nan nan -0 -0 -0 -0 -0 nan nan nan
nan nan nan nan nan nan nan nan nan nan nan nan nan nan nan nan nan nan nan nan nan nan nan nan nan nan nan nan nan nan nan nan nan nan -0 nan nan nan nan nan nan nan nan nan nan nan nan nan nan nan nan nan nan nan nan nan nan nan nan nan nan nan nan nan nan nan nan nan nan nan nan nan nan nan nan nan nan nan -0 -0 -0 -0 -0 -0 -0 -13
nan nan nan nan nan nan nan nan nan nan nan nan nan nan nan nan nan nan nan nan nan nan nan nan nan nan nan nan nan nan nan nan nan nan nan nan nan nan nan nan nan nan nan nan nan nan nan nan nan nan nan nan nan nan nan nan nan nan nan nan nan nan nan nan nan nan nan nan nan nan nan nan nan nan nan nan nan nan nan nan nan nan -0 -0 -0 -4
nan nan nan nan nan nan nan nan nan nan nan nan nan nan nan nan nan nan nan nan nan nan nan nan nan nan nan nan nan nan nan nan nan nan nan nan nan nan nan nan nan nan nan nan nan nan nan nan nan nan nan nan nan nan nan nan nan nan nan nan nan nan nan nan nan nan nan nan nan nan nan nan nan nan nan nan nan nan nan nan nan nan nan nan nan nan
nan nan nan nan nan nan nan nan nan nan nan nan nan nan nan nan nan nan nan nan nan nan nan nan nan nan nan nan nan nan nan nan nan nan nan nan nan nan nan nan nan nan nan nan nan nan nan nan nan nan nan nan nan nan nan nan nan nan nan nan nan nan nan nan nan nan nan nan nan nan nan nan nan nan nan nan nan nan nan nan nan nan nan nan nan nan
nan nan nan nan nan nan nan nan nan nan nan nan nan nan nan nan nan nan nan nan nan nan nan nan nan nan nan nan nan nan nan nan nan nan nan nan nan nan nan nan nan nan nan nan nan nan nan nan nan nan nan nan nan nan nan nan nan nan nan nan nan nan nan nan nan nan nan nan nan nan nan nan nan nan nan nan nan nan nan nan nan nan nan nan nan nan
nan nan nan nan nan nan nan nan nan nan nan nan nan nan nan nan nan nan nan nan nan nan nan nan nan nan nan nan nan nan nan nan nan nan nan nan nan nan nan nan nan nan nan nan nan nan nan nan nan nan nan nan nan nan nan nan nan nan nan nan nan nan nan nan nan nan nan nan nan nan nan nan nan nan nan nan nan nan nan nan nan nan nan nan nan nan
nan nan nan nan nan nan nan nan nan nan nan nan nan nan nan nan nan nan nan nan nan nan nan nan nan nan nan nan nan nan nan nan nan nan nan nan nan nan nan nan nan nan nan nan nan nan nan nan nan nan nan nan nan nan nan nan nan nan -0 nan nan nan nan nan nan nan nan nan nan nan nan nan nan nan nan nan nan nan nan nan nan nan nan nan nan nan
nan nan nan nan nan nan nan nan nan nan nan nan nan nan nan nan nan nan nan nan nan nan nan nan nan nan nan nan nan nan nan nan nan nan nan nan nan nan nan nan nan nan nan nan nan nan nan nan nan nan nan nan nan nan nan nan nan nan nan nan nan nan nan nan nan nan nan nan nan nan nan nan nan nan nan nan nan nan nan nan nan nan nan nan nan nan
nan nan nan nan nan nan nan nan nan nan nan nan nan nan nan nan nan nan nan nan nan nan nan nan nan nan nan nan nan nan nan nan nan nan nan nan nan nan nan nan nan nan nan nan nan nan nan nan nan nan nan nan nan nan nan nan nan nan nan nan nan nan nan nan nan nan nan nan nan nan nan nan nan nan nan nan nan nan nan nan nan nan nan nan nan nan
nan nan nan nan nan nan nan nan nan nan nan nan nan nan nan nan nan nan nan nan nan nan nan nan nan nan nan nan nan nan nan nan nan nan nan nan nan nan nan nan nan nan nan nan nan nan nan nan nan nan nan nan nan nan nan nan nan nan nan nan nan nan nan nan nan nan nan nan nan nan nan nan nan nan nan nan nan nan nan nan nan nan nan nan nan nan
nan nan nan nan nan nan nan nan nan nan nan nan nan nan nan nan nan nan nan nan nan nan nan nan nan nan nan nan nan nan nan nan nan nan nan nan -0 -0 nan nan nan nan nan nan nan nan nan nan nan nan nan nan nan nan nan nan nan nan nan nan nan nan nan nan nan nan nan nan nan nan nan nan nan nan nan nan nan nan nan nan nan nan nan nan nan nan
nan nan nan nan nan nan nan nan nan nan nan nan nan nan nan nan nan nan nan nan nan nan nan nan nan nan nan nan nan nan nan nan nan nan nan nan nan nan nan nan nan nan nan nan nan nan nan nan nan nan nan nan nan nan nan nan nan nan nan nan nan nan nan nan nan nan nan nan nan nan nan nan nan nan nan nan nan nan nan nan nan nan nan nan nan nan
nan nan nan nan nan nan nan nan nan nan nan nan nan nan nan nan nan nan nan nan nan nan nan nan nan nan nan nan nan nan nan nan nan nan nan nan nan nan nan nan nan nan nan nan nan nan nan nan nan nan nan nan nan nan nan nan nan nan nan nan nan nan nan nan nan nan nan nan nan nan nan nan nan nan nan nan nan nan nan nan nan nan nan nan nan nan
nan nan nan nan nan nan nan nan nan nan nan nan nan nan nan nan nan nan nan nan nan nan nan nan nan nan nan nan nan nan nan nan nan nan nan nan nan nan nan nan nan nan nan nan nan nan nan nan nan nan nan nan nan nan nan nan nan nan nan nan nan nan nan nan nan nan nan nan nan nan nan nan nan nan nan nan nan nan nan nan nan nan nan nan nan nan
nan nan nan nan nan nan nan nan nan nan nan nan nan nan nan nan nan nan nan nan nan nan nan nan nan nan nan nan nan nan nan nan nan nan nan nan nan nan nan nan nan nan nan nan nan nan nan nan nan nan nan nan nan nan nan nan nan nan nan nan nan nan nan nan nan nan nan nan nan nan nan nan nan nan nan nan nan nan nan nan nan nan nan nan nan nan
nan nan nan nan nan nan nan nan nan nan nan nan nan nan nan nan nan nan nan nan nan nan nan nan nan nan nan nan nan nan nan nan nan nan nan nan nan nan nan nan nan nan nan nan nan nan nan -3 -3 -0 -0 -1 nan nan nan nan nan nan nan nan nan nan nan nan nan nan nan nan nan nan nan nan nan nan nan nan nan nan nan nan nan nan nan nan nan nan
nan nan nan nan nan nan nan nan nan nan nan nan nan nan nan nan nan nan nan nan nan nan nan nan nan nan nan nan nan nan nan nan nan nan nan nan nan nan nan nan nan nan nan nan nan nan nan nan nan nan nan -0 -0 -0 nan nan nan nan nan nan nan nan nan nan nan nan nan nan nan nan nan nan nan nan nan nan nan nan nan nan nan nan nan nan nan nan
Wind_Speed
2 3 3 4 3 3 2 3 3 3 2 2 1 1 1 2 2 2 3 3 3 3 2 2 2 3 4 4 3 4 4 4 4 4 4 4 4 5 5 5 6 6 6 6 6 6 7 6 6 6 6 6 6 7 7 8 8 8 9 9 9 9 9 9 9 9 8 8 8 8 8 8 7 7 7 7 6 6 6 6 6 6 6 6 7 7
2 2 2 3 3 3 2 3 3 3 3 2 1 1 1 1 2 2 3 3 3 3 2 2 2 3 4 4 3 3 4 4 4 4 4 4 4 5 5 5 5 5 5 5 5 5 6 6 5 5 5 6 6 7 7 8 8 8 8 8 8 9 9 9 8 8 8 8 8 8 8 7 7 7 7 7 7 7 7 7 7 7 7 7 7 7
3 2 2 2 2 2 2 2 2 2 2 2 1 1 2 2 2 2 2 3 3 3 2 2 2 3 3 4 3 3 3 3 4 4 4 4 4 5 5 5 5 4 4 4 4 4 5 5 5 5 5 5 6 6 7 7 7 7 7 7 7 8 8 8 8 8 8 8 8 8 7 7 7 7 7 7 7 7 7 7 7 7 7 7 7 8
3 3 2 2 1 2 1 1 1 2 2 2 2 2 2 2 2 1 1 2 2 3 2 2 2 2 3 4 3 3 2 3 4 4 4 4 4 4 4 4 4 4 3 3 3 4 4 4 4 4 4 4 5 5 5 5 5 6 6 6 6 6 7 7 7 7 7 8 8 8 7 7 7 7 8 8 8 8 8 8 8 7 7 8 8 8
3 2 2 1 1 1 1 1 2 2 2 2 2 2 2 2 1 1 1 2 2 3 3 3 3 3 3 3 4 3 2 4 4 4 4 4 4 4 4 4 4 3 3 3 3 3 3 3 3 3 3 3 3 4 4 4 4 4 4 5 5 5 6 6 6 7 7 7 7 7 8 8 8 8 8 8 8 8 8 8 8 8 8 8 8 8
2 1 1 1 1 1 1 1 1 2 2 2 2 2 2 1 1 1 2 2 2 2 2 2 2 3 3 3 4 5 4 4 4 5 4 4 4 4 4 3 3 3 3 3 3 3 3 3 3 2 2 2 3 3 3 3 3 3 4 4 4 5 5 5 6 6 7 7 7 7 7 8 8 8 8 8 8 8 8 8 8 8 8 8 8 8
2 1 1 1 1 1 1 1 1 1 1 1 1 2 2 2 2 2 2 2 2 2 2 2 2 2 3 4 5 6 5 5 5 6 6 5 5 4 4 4 4 4 3 3 3 3 2 2 2 2 2 2 3 3 3 3 3 3 3 4 4 4 5 5 5 6 6 7 7 7 7 7 7 7 7 8 8 8 8 8 8 8 8 8 8 9
2 1 1 1 1 1 1 1 1 1 1 1 1 1 1 2 2 2 2 2 2 2 2 2 2 2 3 4 4 5 4 4 4 5 5 6 6 6 5 5 4 4 3 3 2 2 2 2 2 2 2 3 3 3 3 4 4 3 3 3 4 4 4 5 5 6 6 6 7 7 7 7 7 7 7 7 7 7 8 8 8 8 9 9 9 9
4 3 1 1 1 2 1 1 1 1 1 1 1 1 1 1 1 2 2 2 3 3 2 2 2 2 3 3 4 4 4 3 3 3 4 4 4 5 6 6 5 4 4 3 3 3 2 2 2 2 2 2 3 3 3 4 4 4 3 3 3 4 4 4 5 6 6 6 7 7 7 7 7 7 6 6 6 7 7 7 8 8 8 8 9 9
4 3 2 1 1 1 2 1 0 1 1 1 1 2 2 2 1 1 1 2 2 2 2 2 2 2 3 3 3 4 4 4 4 5 6 5 5 5 6 6 6 5 5 5 4 4 3 3 2 2 2 2 3 3 4 4 4 4 3 3 4 4 4 5 5 6 6 6 7 7 7 7 7 6 6 6 6 6 6 6 7 7 7 8 8 9
3 3 2 1 1 1 1 1 0 0 1 1 2 2 2 2 2 2 2 0 1 2 2 2 2 1 2 3 3 3 4 3 4 5 6 7 7 7 7 7 7 6 6 6 5 5 4 3 3 2 2 3 3 3 4 4 4 4 4 4 4 4 5 5 5 6 6 6 6 6 7 7 6 6 6 6 6 6 6 6 6 6 6 7 7 8
3 2 2 1 1 1 1 1 0 1 1 2 2 1 1 1 1 2 3 2 1 1 2 2 1 1 1 2 2 3 3 2 2 3 3 4 5 5 5 5 6 6 6 6 6 6 5 5 4 3 3 3 3 3 3 3 4 4 5 5 5 5 5 5 5 5 6 6 6 6 6 6 6 6 6 6 6 6 6 5 5 5 5 6 6 7
2 2 1 1 1 1 1 1 1 1 1 1 1 2 1 0 0 1 2 2 1 0 1 1 1 1 1 1 1 2 2 2 2 2 2 3 3 4 3 3 3 4 4 4 4 4 5 5 5 4 4 3 3 3 3 4 4 5 5 5 5 5 5 5 5 5 6 6 6 6 6 6 6 6 6 6 6 6 6 5 5 5 5 5 6 6
2 2 2 2 1 1 1 2 2 2 2 2 2 2 2 1 1 1 2 1 1 1 1 1 1 1 2 1 1 1 1 1 1 2 2 2 2 2 2 2 2 2 3 3 2 3 3 4 4 4 4 3 3 3 3 4 4 5 5 5 5 5 5 5 5 5 5 6 6 6 6 6 6 6 6 6 6 6 6 5 5 5 5 6 6 6
3 3 3 3 2 2 1 2 2 2 2 1 1 1 1 1 1 2 2 2 1 1 1 2 2 2 2 1 1 1 1 1 2 2 2 2 2 2 2 2 2 2 2 2 2 2 2 2 2 2 3 3 3 3 3 3 4 5 5 5 5 4 4 4 5 5 5 5 5 5 6 6 6 6 6 6 6 6 5 5 5 5 5 6 6 6
3 3 4 4 3 2 1 2 2 2 1 1 1 1 2 2 1 2 3 2 1 1 2 2 2 2 3 2 1 1 1 2 2 2 1 2 2 2 2 2 2 2 2 1 2 2 2 1 1 1 2 3 4 5 5 4 4 5 5 4 4 4 4 4 4 5 5 5 5 5 5 5 6 6 6 6 6 6 5 5 5 5 5 6 6 6
2 3 3 3 3 2 1 1 1 2 2 1 1 1 2 2 2 2 3 2 2 2 2 2 1 0 2 2 2 1 1 2 2 2 1 2 2 2 2 1 1 1 2 2 2 2 2 1 1 1 2 4 5 5 5 5 5 5 5 4 4 4 4 4 4 4 5 5 5 5 5 5 5 5 5 5 5 5 5 5 5 5 6 6 6 6
2 2 3 3 3 2 2 1 1 1 2 2 1 1 1 1 1 2 2 2 2 2 2 2 2 1 1 2 2 1 1 1 2 2 1 1 2 2 2 1 1 1 2 2 2 2 1 1 1 2 3 5 6 6 5 5 5 5 4 4 4 4 4 4 4 4 4 4 4 4 4 4 4 5 5 5 5 5 5 5 5 5 6 6 6 6
2 2 3 3 3 2 2 2 2 2 3 3 3 2 1 1 1 1 2 2 2 2 2 2 2 2 2 2 2 1 0 1 2 2 1 2 2 2 2 2 1 1 1 2 2 2 1 1 3 4 6 6 6 6 6 5 5 5 5 4 4 3 3 3 3 3 3 4 4 4 4 4 4 4 5 5 5 4 4 4 5 5 6 6 5 5
3 2 3 3 3 3 2 2 3 4 4 4 4 3 3 2 1 2 1 1 1 1 2 2 2 2 2 2 2 2 0 1 2 2 1 1 2 2 2 2 2 1 2 2 2 2 1 2 3 4 5 6 6 6 6 6 5 5 5 4 3 3 2 2 2 3 3 3 3 3 3 4 4 4 5 5 5 5 5 5 5 6 6 6 5 5
3 3 3 3 4 3 3 3 4 4 5 5 4 4 3 2 2 2 1 1 1 1 2 2 2 2 2 2 2 1 0 2 2 2 0 1 2 2 1 1 1 1 2 2 2 2 1 2 2 3 4 5 6 6 6 6 6 5 4 3 2 2 2 2 2 2 3 3 3 3 3 4 4 4 5 5 6 6 6 6 6 6 6 6 6 5
4 4 4 4 4 4 4 4 4 5 5 6 5 4 3 3 3 2 2 2 2 2 2 2 2 2 1 2 1 1 0 1 3 3 1 1 2 2 1 1 1 1 1 2 2 2 2 2 2 3 5 6 6 6 6 6 5 5 4 2 2 1 2 2 2 3 3 3 3 3 3 4 4 4 5 5 5 6 6 6 6 6 7 7 6 6
4 4 4 4 3 2 3 3 4 4 4 4 4 4 3 4 4 4 4 3 3 3 2 1 1 0 0 1 1 1 0 1 2 3 2 0 2 2 1 1 1 1 2 3 2 2 3 2 2 3 4 6 6 6 6 5 5 4 3 2 1 1 2 2 3 3 3 3 4 4 4 4 4 4 5 5 5 5 6 6 6 6 6 7 7 7
3 4 4 3 3 2 2 3 4 3 2 3 2 2 2 3 3 3 3 3 3 2 2 1 1 2 2 1 1 1 1 1 1 2 2 1 2 2 1 1 1 1 2 2 2 2 3 3 2 2 3 5 5 5 5 5 4 3 2 1 1 1 2 3 3 4 4 4 4 4 4 4 4 4 5 5 5 5 5 6 6 6 6 7 7 7
3 4 3 3 3 3 4 4 5 5 4 3 3 4 4 5 5 5 4 3 3 3 2 3 3 2 3 3 2 2 1 1 1 2 2 1 1 2 2 1 1 1 2 2 2 2 2 2 2 2 3 4 5 5 4 3 2 1 0 0 1 2 3 3 4 4 5 5 4 4 4 4 4 4 4 5 5 5 5 6 6 6 6 7 7 7
5 5 5 6 6 7 8 8 8 8 7 6 5 4 4 5 5 4 4 3 3 3 3 3 2 2 2 2 2 2 1 0 0 1 2 1 1 2 2 1 0 0 2 2 2 1 1 2 2 3 3 3 4 4 2 1 1 2 2 2 3 3 4 4 5 5 5 5 5 5 4 4 4 4 4 5 5 5 5 6 6 6 6 6 7 7
10 10 10 9 10 10 10 11 11 11 11 9 8 7 5 5 4 4 3 2 2 3 3 2 1 1 2 2 2 2 1 0 0 1 2 2 0 1 1 1 0 1 2 2 2 1 1 2 2 2 3 3 4 5 4 4 4 4 4 4 4 4 4 5 5 5 5 5 5 5 4 4 4 4 4 5 5 5 6 6 6 6 6 6 5 5
11 11 10 9 10 10 10 11 11 12 12 12 11 10 7 5 4 3 2 2 2 3 3 2 1 0 1 2 2 2 2 1 1 1 2 2 1 1 2 0 0 0 1 2 2 2 2 1 2 2 3 3 3 3 5 5 6 6 5 5 5 4 4 5 5 5 5 5 5 5 4 4 4 4 5 5 5 6 6 6 6 6 5 4 2 1
9 9 8 7 6 6 6 6 7 9 11 12 11 10 6 4 4 4 3 3 3 3 3 2 2 2 1 1 2 2 2 2 1 1 2 2 0 1 1 0 0 0 1 1 2 2 2 2 2 2 2 3 3 3 3 4 5 5 5 5 5 5 5 5 5 5 5 6 5 5 5 5 5 5 5 6 6 6 6 6 6 5 3 1 0 0
7 8 7 7 7 7 6 4 3 3 5 8 9 8 5 4 3 4 4 4 4 3 3 2 2 2 1 0 1 2 2 2 1 2 3 2 1 1 1 1 1 1 0 1 1 2 3 2 2 1 2 2 2 2 2 3 3 3 3 4 4 4 5 5 5 6 6 6 6 6 6 6 6 6 6 6 6 6 6 6 6 4 1 1 1 1
4 5 5 5 5 5 5 4 4 4 3 2 3 4 3 3 3 4 4 4 4 4 3 3 3 2 2 1 1 1 2 2 2 2 3 2 1 1 0 0 0 1 0 1 1 1 2 2 2 2 1 2 2 2 2 2 2 2 2 2 3 3 4 5 6 6 7 7 7 6 6 6 6 6 6 6 6 6 6 7 6 3 0 1 1 1
3 3 3 3 3 3 3 3 3 4 4 4 4 3 3 3 3 4 4 4 4 4 4 3 3 3 2 2 2 2 2 2 2 3 3 2 1 1 1 1 0 0 0 1 2 2 1 2 2 2 2 2 2 2 2 1 1 1 2 2 2 2 4 4 5 6 6 6 7 7 6 6 6 6 6 6 6 6 6 6 6 4 1 2 2 2
3 2 2 3 3 3 3 3 3 3 3 2 2 2 2 2 3 3 4 4 4 4 4 4 3 3 2 2 2 2 2 3 3 4 4 3 1 1 1 1 1 1 1 1 1 1 1 1 2 2 2 2 2 2 2 1 1 1 2 1 1 2 3 3 4 4 5 5 5 6 6 6 6 6 6 6 6 6 6 6 6 5 3 2 2 3
2 2 2 3 3 3 3 3 3 2 2 2 1 1 1 1 2 3 3 3 3 4 4 4 4 3 3 2 2 2 3 3 4 4 5 3 2 1 1 1 1 1 1 1 1 1 0 1 1 1 2 2 2 2 2 2 1 1 1 1 1 1 2 2 2 3 3 3 3 4 4 5 5 6 6 6 5 5 5 6 6 6 5 2 2 3
2 2 2 2 2 2 2 2 2 2 2 1 1 1 1 1 1 2 2 3 3 3 3 4 4 4 4 3 2 2 3 3 4 4 5 3 3 2 2 2 2 2 2 1 1 0 0 1 1 1 1 2 2 2 2 2 1 1 1 0 1 2 2 1 1 2 2 2 2 2 3 3 3 4 4 5 5 6 6 6 6 7 7 5 3 2
2 2 2 2 2 1 1 1 1 1 1 1 1 0 1 1 1 1 1 2 2 2 2 2 2 3 4 4 4 3 3 3 3 4 5 4 3 2 2 2 2 2 2 2 1 1 0 1 1 1 1 1 2 2 2 2 2 2 1 1 1 2 2 1 1 1 1 2 2 2 2 2 2 2 3 5 6 6 7 7 7 7 7 6 6 4
2 1 1 1 1 1 0 0 1 1 1 1 1 1 0 0 0 1 1 1 1 1 1 1 1 1 2 3 3 3 3 2 3 3 5 4 3 3 2 2 2 3 3 2 2 1 1 0 1 1 1 1 2 2 2 2 2 2 2 2 2 2 2 1 0 1 1 2 2 2 2 2 2 2 3 5 6 6 6 7 7 7 7 7 7 6
1 1 0 0 1 1 1 1 1 1 1 1 1 1 0 0 0 0 0 1 1 1 1 1 1 1 1 1 1 2 2 2 2 3 4 3 3 3 3 2 2 2 3 3 3 2 2 1 1 1 2 2 3 3 2 2 2 2 2 2 2 2 2 1 1 1 1 2 3 3 3 2 1 2 3 3 3 4 4 4 5 6 7 6 7 7
1 1 1 1 2 2 2 2 2 2 1 1 1 1 0 0 1 1 1 1 1 1 1 1 0 0 1 1 1 2 2 2 3 3 3 3 3 3 3 2 2 2 3 2 2 2 2 2 2 2 2 2 3 2 2 1 1 2 3 3 2 2 2 1 1 1 1 2 2 3 2 2 1 1 2 2 2 2 3 3 4 4 4 4 4 6
1 1 2 2 2 2 3 3 2 1 1 1 0 0 1 1 1 1 1 1 1 1 1 1 0 0 0 1 1 2 2 2 3 3 3 3 3 3 3 3 3 3 2 2 2 2 3 3 3 2 2 2 2 2 2 2 2 2 3 2 2 2 2 2 2 2 1 1 1 2 2 2 1 1 2 1 1 2 2 2 3 3 2 1 2 3
2 2 2 2 2 2 2 2 1 1 1 1 1 1 1 1 1 1 1 1 1 1 1 1 1 1 1 1 1 1 1 2 3 3 3 4 4 3 3 4 3 3 3 2 2 2 3 3 3 2 2 2 3 3 4 3 3 4 5 3 3 3 3 2 1 0 0 0 1 1 2 2 2 2 2 2 2 2 2 2 3 3 2 1 1 1
3 2 2 2 1 1 1 1 1 1 1 1 1 1 1 1 1 1 1 1 1 2 2 2 2 2 2 3 3 2 1 1 2 3 3 4 4 4 3 3 3 3 3 3 2 2 3 3 3 3 3 3 3 3 4 3 3 3 4 3 4 4 5 3 2 1 0 1 1 1 1 2 2 2 3 3 3 3 3 3 3 4 3 2 2 3
3 2 2 1 1 2 2 2 2 1 1 1 1 0 1 1 1 1 2 1 1 1 2 2 2 2 1 2 3 3 2 2 2 2 2 3 3 4 4 4 3 3 3 3 2 2 3 3 4 4 3 3 3 4 5 4 4 3 3 4 4 4 3 2 2 1 1 1 1 1 2 2 2 3 3 3 3 3 3 4 5 5 5 3 3 3
2 1 1 2 2 2 2 1 1 1 1 1 1 0 0 0 1 1 2 1 1 1 2 2 2 2 1 1 2 3 3 3 2 1 1 3 4 4 4 4 4 3 4 3 3 2 2 3 4 4 3 3 3 4 4 4 4 3 3 3 4 4 3 2 2 1 1 2 2 2 2 2 2 2 2 3 3 3 2 2 3 3 4 3 3 3
1 1 1 2 2 2 1 1 1 1 1 1 1 1 0 1 1 1 2 2 1 1 1 2 2 2 1 1 2 2 3 3 3 2 1 2 3 5 4 4 3 3 3 4 3 3 3 3 3 3 3 3 4 4 4 4 4 4 4 4 4 5 4 4 3 3 3 4 3 3 2 1 1 1 2 2 3 2 2 2 3 3 3 3 3 3
2 2 1 2 2 2 2 2 2 1 1 1 1 1 1 1 1 1 2 2 2 2 1 2 2 1 0 1 1 2 2 3 3 3 2 2 2 1 2 3 3 4 4 4 4 4 4 3 3 3 2 3 4 4 5 4 4 4 5 4 4 4 4 4 4 4 4 4 4 3 1 0 0 1 2 3 3 3 3 3 3 4 4 3 3 3
2 2 2 2 2 2 2 2 2 2 1 1 1 1 1 2 2 2 1 2 2 2 2 2 1 1 2 1 1 0 0 1 2 2 2 2 2 1 1 2 3 4 4 4 4 4 4 4 4 3 3 3 4 4 4 4 4 4 4 3 3 3 4 4 3 3 3 3 3 2 1 0 0 1 2 3 3 3 3 3 3 3 4 3 3 4
3 3 3 3 2 2 2 2 2 2 2 2 1 1 2 2 2 2 1 2 2 2 2 2 1 1 2 2 2 2 2 1 1 2 2 2 2 1 1 1 2 3 3 4 4 5 5 5 5 4 4 4 4 4 4 4 4 4 3 3 3 3 4 4 3 3 2 3 3 2 1 1 1 2 3 3 3 3 3 3 3 3 3 4 4 4
4 4 3 3 3 3 3 3 3 3 3 3 2 1 1 2 3 3 2 2 2 2 2 2 2 2 2 2 2 2 2 2 1 1 2 2 2 1 1 1 0 1 1 2 3 3 4 5 6 6 6 6 5 5 5 4 4 4 4 3 3 4 4 4 3 3 2 2 2 2 2 2 2 2 2 3 4 4 4 3 3 3 3 4 4 4
4 4 4 4 3 3 3 3 3 3 3 3 3 2 1 1 1 1 2 2 2 2 3 3 3 3 3 2 2 2 2 2 1 1 2 1 1 1 1 0 0 1 1 1 1 2 2 3 5 7 9 9 8 7 6 5 4 4 4 4 4 3 4 4 3 3 3 3 2 2 2 2 1 1 1 2 4 5 5 4 4 3 3 3 4 4
4 4 4 4 4 4 4 4 4 4 4 4 3 3 2 2 1 1 1 1 2 2 3 3 3 3 3 3 3 3 3 3 2 2 2 2 1 1 1 1 1 0 0 1 1 1 1 2 2 3 6 10 11 11 7 6 5 4 4 4 3 3 3 3 3 3 3 3 2 2 2 2 2 1 2 2 3 4 4 4 4 3 3 2 3 3
Wind_Direction
123 130 131 134 133 136 149 147 140 132 129 105 73 42 34 52 54 48 40 45 49 48 37 11 359 358 358 359 24 55 67 64 63 63 63 62 61 61 61 60 60 59 60 60 61 61 59 57 56 56 57 58 58 56 55 53 51 48 45 42 40 38 37 35 33 31 30 29 28 26 24 21 17 12 6 1 355 349 345 340 338 338 338 335 330 322
118 116 119 124 125 129 145 149 142 133 133 121 93 51 32 51 53 46 34 34 40 44 37 7 1 5 8 351 12 52 67 69 71 71 70 68 66 66 66 65 63 61 59 59 59 60 60 59 58 59 60 61 61 59 56 53 49 46 43 39 37 34 32 30 28 26 23 21 20 18 15 11 6 1 355 350 346 342 339 337 336 336 335 331 326 321
136 130 131 119 117 122 136 144 131 113 114 108 84 55 46 60 58 46 27 16 18 24 30 20 14 12 9 350 2 41 64 76 79 78 77 76 75 75 75 74 72 69 65 61 61 62 64 63 62 61 61 61 59 57 53 49 45 42 38 34 31 28 25 23 21 18 15 13 11 8 4 360 355 350 345 342 339 336 335 333 333 332 330 325 321 316
144 142 145 127 112 111 122 118 99 81 78 76 61 46 47 60 60 45 19 8 7 9 16 23 28 26 10 353 351 7 67 85 86 84 83 83 84 85 86 86 86 84 82 76 72 71 70 69 67 63 60 57 54 51 46 41 37 33 30 26 23 20 17 15 13 10 8 5 2 358 354 349 345 340 337 334 332 330 328 327 326 324 322 319 315 312
143 138 140 125 111 101 86 80 80 80 73 64 50 38 41 53 48 25 6 13 14 12 11 20 31 34 18 1 350 353 51 84 87 84 83 84 86 89 92 92 93 92 91 85 80 77 74 71 66 59 51 44 39 34 28 23 20 18 17 16 14 12 10 8 6 4 1 358 355 350 346 342 337 334 330 328 325 322 320 319 318 316 315 313 311 310
136 117 114 110 110 103 85 68 78 89 87 66 49 41 45 47 38 25 17 19 18 13 8 17 29 34 26 12 358 356 20 53 67 69 67 68 73 80 86 84 83 80 77 75 72 70 67 62 54 42 27 14 6 359 353 349 351 355 359 4 4 4 3 2 0 358 356 353 349 345 340 336 332 328 325 322 319 316 314 313 311 310 309 308 307 307
126 89 83 85 89 89 86 62 57 82 109 89 61 43 40 40 39 35 30 22 14 5 358 7 24 32 28 14 3 0 9 26 39 44 44 44 47 54 63 65 63 60 58 56 54 51 46 37 23 5 350 340 334 331 327 330 336 342 350 356 358 357 356 355 354 352 349 346 343 339 335 331 327 324 320 318 315 313 311 310 308 307 305 304 304 303
136 119 94 96 94 91 83 62 30 21 92 117 103 72 40 34 30 26 22 21 17 11 3 8 16 20 19 10 2 360 4 19 29 33 34 34 36 40 45 47 46 42 36 30 22 12 1 349 338 329 323 323 325 326 327 335 342 347 351 353 353 351 348 347 346 344 342 339 336 332 329 326 323 320 318 316 314 313 311 308 307 305 303 302 302 301
144 141 123 111 111 114 112 88 26 1 353 101 121 124 113 78 37 19 15 17 17 16 20 24 19 7 355 359 359 359 1 25 44 49 43 41 40 41 43 42 38 31 21 9 357 342 326 318 312 312 316 326 336 344 350 354 356 355 351 347 343 339 337 336 335 334 333 331 329 326 323 322 320 319 318 316 315 313 310 308 306 304 303 302 302 301
138 136 124 97 93 110 124 125 82 339 321 56 93 110 121 120 109 79 43 12 4 7 25 36 30 5 342 348 355 360 359 19 42 52 48 44 47 50 47 43 37 29 20 10 358 345 329 320 313 314 334 349 359 5 8 5 359 350 339 330 325 322 322 323 324 325 325 325 323 321 320 319 319 319 318 317 315 313 311 309 307 305 304 304 303 301
126 122 110 97 79 67 89 117 138 286 332 51 59 60 64 91 116 128 133 112 345 351 9 24 27 16 353 347 349 354 358 8 22 31 31 32 35 38 38 36 33 28 22 15 8 359 348 342 337 343 4 11 11 9 7 358 345 331 319 312 308 307 309 312 315 318 319 320 320 318 318 318 318 318 318 317 315 314 311 310 308 306 306 305 304 302
128 121 105 108 101 84 75 76 51 21 39 64 66 55 25 23 91 129 141 152 161 342 349 354 2 14 15 347 341 343 354 2 4 1 4 14 17 19 20 22 23 20 16 14 11 7 3 0 360 5 21 22 13 1 353 341 326 314 304 299 297 298 300 304 309 312 316 317 317 317 317 317 316 316 315 314 313 313 313 312 310 309 308 307 305 303
120 113 106 104 107 111 109 102 88 66 65 108 137 161 188 211 107 112 120 128 135 321 330 337 341 338 334 345 343 341 345 354 353 350 354 4 7 6 3 6 7 6 6 6 4 3 4 5 6 9 23 22 10 354 339 325 311 301 294 290 289 289 293 299 305 310 314 315 315 315 315 314 313 312 310 310 311 312 314 315 315 314 314 311 308 306
119 110 108 111 115 122 131 133 139 150 171 175 172 168 165 148 115 101 96 82 43 341 343 19 358 334 320 335 350 347 340 357 3 5 4 1 359 359 357 355 352 352 4 359 348 341 351 1 3 4 9 9 2 346 326 312 301 293 287 284 283 285 291 298 304 309 311 312 312 312 312 310 309 308 306 308 310 312 315 317 317 317 316 314 312 310
142 137 137 146 154 160 161 151 154 163 179 177 158 128 102 93 89 92 98 98 67 358 22 32 12 345 323 326 347 1 357 33 38 25 356 338 340 354 2 354 344 344 8 357 324 312 336 356 352 340 340 338 325 308 297 289 285 283 281 280 281 285 291 298 303 305 306 307 308 308 308 307 306 306 306 308 310 312 313 314 314 314 314 313 312 312
150 149 154 162 170 178 182 161 155 155 159 152 137 123 120 119 110 102 108 118 114 66 56 52 25 350 320 321 352 25 23 57 64 52 350 319 326 351 11 10 350 338 346 333 302 295 317 333 329 315 312 303 297 294 291 284 281 281 280 281 282 285 291 295 298 300 302 304 305 305 305 305 305 306 308 310 311 312 312 311 310 309 309 309 309 310
141 146 152 159 170 184 190 156 143 141 140 137 124 114 117 127 124 117 113 118 108 91 85 97 97 354 303 311 329 4 39 73 81 74 21 314 316 338 11 34 2 321 318 304 286 280 300 313 315 306 294 290 290 290 289 286 284 283 282 281 282 284 287 290 294 300 303 306 305 303 303 304 306 308 310 312 313 313 312 310 308 306 305 304 304 305
139 144 144 157 169 178 171 155 146 140 134 130 118 95 76 86 101 109 112 115 113 112 112 118 136 164 203 271 288 311 24 86 88 76 34 310 304 324 5 39 42 316 302 289 279 273 280 287 291 294 292 291 290 290 289 288 287 285 283 281 280 279 281 288 296 304 311 309 307 304 304 306 309 311 312 312 312 311 310 308 306 304 301 299 298 298
156 155 149 160 166 169 166 168 166 159 152 152 141 124 93 78 75 82 93 108 121 130 135 141 156 177 188 225 250 273 355 100 89 76 34 298 294 317 359 20 26 353 298 279 273 271 277 280 289 293 295 294 293 291 290 289 288 286 283 279 276 275 278 290 302 312 314 310 306 304 307 310 312 312 312 311 309 307 306 304 301 301 303 300 297 295
166 174 172 159 151 150 172 193 187 175 166 158 142 127 119 112 92 81 89 99 112 126 133 145 168 193 204 229 253 276 305 87 84 79 54 284 284 304 352 15 21 355 302 280 273 275 293 294 297 298 299 296 294 291 289 289 288 285 281 275 271 271 278 294 305 311 308 304 303 304 308 308 308 307 308 309 311 313 312 312 312 314 315 315 312 305
167 192 202 170 152 152 180 195 191 180 164 144 129 120 123 116 111 110 121 115 112 114 118 145 177 198 199 212 238 268 313 95 96 93 77 296 290 295 336 21 36 10 304 284 282 289 310 303 301 300 302 300 297 293 290 288 285 282 276 270 264 263 275 288 294 296 294 292 294 298 300 299 298 298 299 303 307 310 311 313 315 317 319 320 320 316
169 190 199 181 167 164 172 173 175 170 158 142 138 138 144 140 145 153 161 148 144 147 157 181 195 200 191 212 240 272 329 108 116 118 100 330 297 294 321 25 50 22 284 277 284 303 322 310 302 301 308 307 303 296 290 285 281 275 266 257 250 253 268 279 286 289 287 288 288 289 288 288 288 289 291 294 298 301 303 305 307 308 310 311 313 312
155 165 170 177 179 170 149 144 148 152 149 141 143 150 156 155 158 164 169 161 155 155 162 177 183 163 172 259 283 312 353 104 117 116 108 202 276 282 317 13 36 355 272 272 287 311 326 313 304 304 312 312 307 298 287 278 271 264 251 238 234 249 273 285 291 294 293 292 290 287 285 284 285 285 287 288 290 292 292 294 295 295 296 297 298 298
132 138 149 165 172 161 127 127 129 128 114 99 97 101 107 112 117 122 127 129 128 127 120 85 48 22 355 340 337 341 356 71 99 105 113 185 254 272 309 15 24 327 274 276 296 323 329 316 309 308 315 316 309 296 280 267 257 246 226 223 248 287 300 305 306 304 301 297 293 290 287 286 286 286 287 288 288 289 288 288 287 286 286 286 286 287
118 126 138 151 156 152 136 132 131 128 116 104 98 96 94 91 90 89 87 87 86 86 78 64 46 14 346 343 335 327 333 25 88 112 123 177 255 277 301 22 47 290 276 287 309 337 336 319 312 314 319 318 312 301 278 254 236 219 144 36 351 338 330 324 318 313 307 301 295 290 287 287 287 287 289 291 292 292 291 290 287 285 283 282 281 282
113 121 130 138 141 140 134 134 134 135 132 127 122 118 112 104 97 88 75 70 72 74 74 63 40 346 328 331 317 304 300 352 92 124 131 142 258 290 303 21 64 295 286 294 313 340 344 318 312 315 319 318 317 317 317 357 66 59 47 26 6 351 341 331 323 316 309 302 295 290 285 284 284 286 289 291 293 294 294 292 290 287 284 282 280 280
113 119 124 129 133 134 133 134 136 138 137 136 135 133 126 114 103 95 90 94 94 92 93 93 69 317 324 320 302 288 288 276 167 149 134 120 132 286 295 351 31 325 293 295 302 318 325 311 309 310 310 309 317 330 7 28 37 39 34 23 9 356 343 333 324 316 311 305 299 293 288 285 285 287 289 291 293 293 293 292 291 289 287 285 283 283
112 115 117 124 131 136 136 137 141 143 142 141 140 138 132 119 115 126 158 157 125 104 104 122 143 205 292 288 285 285 292 272 224 175 138 113 133 264 274 322 34 354 290 294 299 309 320 302 295 295 297 299 309 329 358 12 20 25 23 21 13 2 351 339 330 323 319 314 309 304 298 295 293 292 293 293 293 293 293 292 291 290 290 291 296 312
84 83 83 88 96 102 104 118 139 149 151 151 150 148 138 127 133 150 172 154 128 111 115 135 151 163 196 265 290 299 298 276 231 174 137 117 168 258 272 327 24 7 299 315 323 329 332 305 285 280 287 299 309 322 332 349 360 7 10 18 17 11 1 351 343 337 333 328 323 318 313 307 303 301 299 298 297 295 293 291 290 290 293 300 335 93
46 48 45 39 38 43 48 44 64 125 152 160 159 156 144 135 137 146 152 142 131 125 135 144 150 149 145 40 339 322 301 283 242 171 138 134 187 259 288 351 2 353 14 28 7 346 330 313 296 283 284 303 309 314 314 327 336 343 352 11 15 13 7 1 355 348 342 335 330 324 319 314 310 307 304 302 299 296 293 290 287 285 292 120 129 134
38 40 35 25 23 27 36 41 41 41 48 90 115 122 124 124 128 135 139 140 139 138 144 151 153 151 143 120 92 304 286 276 237 168 139 142 175 224 187 74 350 336 10 93 79 11 318 310 307 308 317 317 314 309 305 315 327 337 342 4 8 5 360 358 355 350 344 337 331 325 320 317 313 310 307 304 301 297 293 289 286 281 167 149 157 172
51 49 39 23 18 22 32 36 38 41 43 49 56 67 88 110 126 136 144 147 145 141 141 148 154 156 154 152 165 201 248 256 221 179 146 138 148 173 138 133 101 7 333 100 120 140 205 281 298 312 328 322 314 307 302 311 335 353 358 12 1 342 339 347 349 347 340 336 331 327 324 322 320 317 312 307 302 297 293 289 285 277 216 171 178 193
67 56 40 28 25 27 29 28 30 35 46 56 62 67 76 103 129 143 150 153 148 142 139 144 149 155 159 167 187 215 245 251 219 189 161 138 129 145 131 125 110 81 25 47 93 129 160 227 277 302 314 311 307 303 304 316 352 20 24 24 354 320 320 336 342 340 332 330 328 326 326 328 328 326 322 316 308 301 294 291 286 278 252 192 185 197
72 58 42 33 27 25 23 21 22 24 29 44 64 80 87 108 135 150 161 161 157 151 146 148 152 156 158 170 208 243 264 257 232 204 174 144 133 144 138 141 137 124 88 53 44 55 129 233 271 299 308 308 306 303 303 313 334 1 25 37 322 296 300 323 331 328 322 324 321 319 321 326 329 330 328 324 318 311 304 299 293 289 287 251 211 201
71 59 45 37 34 29 21 16 12 8 1 2 31 80 103 121 145 163 174 176 173 166 157 156 157 158 159 164 183 220 252 252 233 208 178 153 140 138 140 168 165 149 124 121 101 73 317 268 258 269 308 313 310 304 298 298 308 317 302 245 241 255 268 287 306 314 317 318 310 304 308 314 320 324 325 326 325 324 322 316 311 307 305 294 276 242
77 64 44 41 44 45 29 8 354 344 325 318 330 20 88 128 159 178 186 185 185 184 178 168 162 161 161 163 172 190 221 231 216 195 175 157 143 137 146 182 173 155 136 139 141 147 173 268 262 252 268 295 298 298 298 303 311 317 307 280 261 257 256 252 252 281 308 305 300 297 299 304 306 308 311 324 330 333 334 330 326 323 318 311 303 291
93 89 47 51 71 97 126 303 292 282 274 283 296 318 338 159 178 186 186 176 183 188 188 182 176 175 176 168 173 183 201 201 195 186 175 159 146 140 148 171 173 163 152 152 156 156 143 276 304 294 258 241 252 271 292 311 327 332 316 295 281 274 271 266 219 186 240 267 275 281 287 291 296 302 306 323 331 336 336 334 333 332 331 327 320 312
115 150 226 213 185 177 189 222 236 236 233 239 253 261 249 209 176 157 111 108 123 141 163 162 178 215 232 203 190 184 179 165 173 179 173 161 148 141 143 152 171 181 176 164 157 151 143 172 259 276 271 251 249 256 276 302 315 311 295 284 276 274 277 276 245 207 220 251 267 277 283 291 304 311 310 323 333 339 337 332 331 333 338 335 328 321
146 189 223 213 200 190 194 206 214 216 209 207 209 203 174 142 111 92 84 95 100 104 115 135 157 208 264 265 240 218 193 175 174 175 171 169 163 154 150 156 176 192 192 171 156 149 155 175 196 218 242 259 266 269 273 274 276 280 287 293 295 290 277 260 236 219 220 245 272 287 296 308 319 316 305 320 335 341 333 322 322 328 340 341 333 325
172 200 223 211 199 190 195 200 198 190 176 174 153 118 110 104 93 82 75 83 85 86 87 99 108 131 277 272 262 251 232 198 182 176 173 179 178 172 164 170 176 178 175 169 161 159 167 183 196 206 213 237 262 275 277 269 267 281 302 313 313 302 285 258 235 221 212 223 257 280 292 299 297 292 290 298 304 307 303 297 301 309 323 335 336 327
179 202 225 215 199 185 185 177 156 137 131 114 88 81 91 98 96 88 75 60 49 40 36 42 36 14 345 328 303 279 255 228 207 195 182 186 186 184 179 181 175 166 156 164 172 178 181 191 205 219 226 243 263 274 276 272 279 290 300 299 292 285 281 274 262 206 163 225 239 249 266 285 293 295 294 292 281 266 256 257 266 274 278 225 179 175
188 199 212 201 184 166 153 124 117 116 111 98 96 102 123 128 124 115 97 66 31 15 16 33 35 21 351 333 324 315 297 260 231 216 200 194 190 190 191 191 181 166 153 159 178 199 204 203 212 225 237 247 262 272 275 273 276 282 287 289 296 301 299 295 305 6 13 274 256 244 246 273 286 290 291 289 281 270 257 246 251 257 260 224 188 178
199 199 189 162 143 131 122 115 113 112 105 93 96 123 149 140 132 124 116 113 86 37 33 50 61 59 4 322 317 317 316 305 277 243 215 201 198 198 200 199 189 173 159 160 176 202 212 213 220 230 236 239 248 260 272 277 278 276 273 282 294 305 308 301 301 298 242 238 234 233 236 250 260 268 275 278 276 272 266 260 260 261 261 241 212 201
192 176 131 117 113 109 105 110 116 117 117 133 170 206 142 105 110 111 110 117 106 79 58 63 71 75 64 320 307 309 311 315 317 303 241 212 205 202 204 203 195 183 172 173 179 189 201 217 225 229 228 228 237 248 259 267 271 271 268 269 268 266 259 265 276 287 282 268 258 246 234 240 253 267 277 275 273 270 268 261 262 262 260 244 226 219
147 129 111 115 115 119 131 149 143 131 127 157 186 196 115 105 104 107 113 115 105 91 75 77 76 68 27 310 303 309 315 321 327 331 324 257 223 212 204 199 196 197 198 201 201 199 204 221 228 226 216 218 227 237 247 256 263 267 266 261 259 256 250 256 267 281 289 289 286 278 256 242 261 293 293 284 276 269 262 261 264 266 263 251 238 230
135 136 137 134 139 151 171 160 143 129 133 183 205 183 118 107 102 103 113 114 111 106 96 89 94 106 226 274 296 316 324 325 327 331 333 331 310 260 215 206 202 203 213 221 222 221 219 224 226 225 218 223 230 234 236 242 251 260 263 259 259 261 263 264 265 267 271 278 280 278 269 119 86 288 281 282 280 274 261 250 249 254 260 258 250 241
170 172 172 165 164 168 171 150 140 140 167 204 209 175 126 118 114 109 102 112 115 115 104 91 105 141 189 215 227 236 276 298 305 311 317 320 324 315 260 225 215 212 216 223 227 230 232 231 228 225 224 233 239 241 237 233 238 246 252 250 252 258 264 264 262 257 253 259 265 268 272 53 352 286 276 281 282 279 267 250 241 239 246 251 251 249
193 193 190 183 178 177 175 162 160 167 191 209 206 175 137 144 148 148 125 126 126 124 117 115 137 172 200 212 209 198 192 213 242 267 284 293 297 297 280 249 229 224 225 228 230 232 234 233 230 227 225 231 241 247 246 237 235 237 240 239 244 253 262 263 260 254 244 248 250 247 232 246 264 273 284 294 293 288 280 268 253 242 239 241 244 246
196 198 196 190 189 192 194 184 181 186 201 210 207 184 149 172 177 173 148 142 141 142 144 156 170 186 208 223 221 212 203 207 222 241 256 264 273 284 295 290 279 272 274 248 239 236 238 236 231 227 224 226 235 245 251 246 242 240 242 240 243 251 260 263 262 255 247 246 242 233 213 221 227 236 261 288 291 290 289 285 273 257 243 238 236 238
196 197 195 192 196 201 204 194 192 196 207 212 210 196 162 172 179 168 138 140 150 162 169 174 181 190 207 217 218 212 205 205 216 234 245 248 248 250 263 286 10 7 338 299 269 252 251 247 238 231 226 224 227 233 243 244 244 242 242 240 241 245 254 260 260 255 248 247 242 231 217 224 215 201 195 263 280 286 290 288 282 269 253 245 240 239
199 198 194 195 200 205 206 199 198 202 209 211 208 197 171 159 154 148 136 152 171 184 189 187 189 196 210 217 217 212 204 200 207 222 236 236 227 206 197 177 154 136 323 304 292 284 277 279 275 260 244 231 224 222 229 233 237 240 243 239 236 237 246 252 255 256 254 251 241 225 213 223 223 211 197 232 268 283 288 286 281 272 260 255 251 251